Accueil
METAR-TAF:

METAR-TAF

Aéroports :

Plaisance, Italie

latitude: 44-55N, longitude: 009-44E, altitude: 134 m

Observation

Le bulletin a été fait il y a 6 heures et 11 minutes, à 17:55 UTC
Vent 1 kt de est
Température 2°C
Humidité 100%
Pression 1006 hPa
Visibilité: 0100 m
brouillard

METAR: LIMS 031755Z 08001KT 0100 R30/0800 R12/0600 FG VV002 02/02 Q1006

Heure: 01:06 (00:06 UTC)


TAF: absent

Observations et prévisions météorologiques de plus de 4000 aéroports (messages METAR et TAF).

Les stations disponibles sont représentées par des disques jaunes et rouges sur la carte.

Passer la souris dessus pour voir le nom de la station.

Cliquer dessus pour voir les observations et prévisions météorologiques.

Pour changer de carte: cliquez sur les boutons verts avec une croix noire pour zoomer, sur le bouton vert avec un tiret pour effectuer un zoom arrière, ou sur les flèches vertes pour les cartes adjacentes.


METAR-TAF: